Погода в Лимане

Хотите узнать прогноз погоды в Лимане? Тогда Вам сюда: Погода в Лимане

Поиск расширенной информации на нашем сайте:

Полезная информация:

Новости сайта



02.01.2020
Опубликован Долгосрочный прогноз погоды по городам России и ближнего зарубежья на январь 2020 года.
Карты: Прогноз на январь и февраль 2020 года, Сравнение прогнозируемой аномалии приземной температуры воздуха на январь 2020 года по разным моделям.




Погода в Лимане - сегодня

Время (UTC), дата Ветер
(°,м/с) 
Видим.   Явления Облачность Т
(°С)
Тd
(°С)
f(%) Тe
(°С)
Pmin
(гПа)
dP
(гПа)
Po
(мм)
O2
(г/м3)
Тmin Tmax R s Состояние
почвы
15 18.10.20 140 (ЮВ) 4-10  20000 м    8/8 600 м 
[Sc]
+21.1 +15.9 72 +31  1012.1  -0.9  760  281    +24       
18 18.10.20 тихо ()   4000 м  дымка  ясно 
+12.9 +11.4 91 +16  1017.5  0.1  765  292           
21 18.10.20 тихо ()   4000 м  дымка  ясно 
+9.9 +8.9 93 +10  1016.3  -1.2  764  295           
00 19.10.20 тихо ()   0200 м  туман  ясно 
+7.5 +6.9 96 +8  1016.4  0.1  764  298           
03 19.10.20 тихо ()   2000 м  в посл. час туман  ясно 
+7 +6.5 97 +7  1016.1  -0.3  764  299  +6.6        сухая 
06 19.10.20 тихо ()   20000 м  {туман}  3/0 верхняя 
[Ci fib]
+13.9 +11.5 85 +17  1016.9  0.7  764  291  +6.3         
09 19.10.20 360 (С) 20000 м    3/0 верхняя 
[Ci fib]
+20.3 +9 48 +20  1015.5  -1.4  763  285           
12 19.10.20 360 (С) 20000 м    3/0 верхняя 
[Ci fib]
+23.3 +5.6 32 +23  1014.2  -1.3  762  282           
15 19.10.20 тихо ()   20000 м    10/0 верхняя 
[Cs]
+14.6 +6.9 60 +15  1014.2  762  290    +23.4       
18 19.10.20 360 (С) 20000 м    4/0 верхняя 
[Ci fib]
+13 +9.2 78 +13  1014  -0.1  762  291           
21 19.10.20 320 (СЗ) 20000 м    3/0 средняя 
[Ac trans]
+12.2 +10 86 +14  1014.9  0.8  763  292           
00 20.10.20 290 (З) 20000 м    10/10 600 м 
[Sc]
+13.1 +10.6 85 +16  1016.4  1.6  764  292           
03 20.10.20 340 (С) 20000 м    10/10 600 м 
[Sc]
+11.4 +8.4 82 +10  1019.6  3.2  766  295  +11.4        сухая 
06 20.10.20 340 (С) 4-10{12}  20000 м    6/6 600 м 
[Sc]
+11.5 +6.7 72 +11  1023.2  3.6  769  296  +10.7         
09 20.10.20 360 (С) 4{10}  20000 м    1/1 600 м 
[Sc]
+15.1 +4.4 49 +15  1023.8  0.6  769  293           
12 20.10.20 290 (З) 20000 м    3/0 верхняя 
[Ci sp]
+16.2 +2.9 41 +17  1023.5  -0.3  769  292           
15 20.10.20 тихо ()   20000 м    10/10 600 м 
[Sc]
+13.4 +3.8 52 +13  1023.9  0.4  769  295    +16.3       
18 20.10.20 290 (З) 20000 м    9/9 600 м 
[Sc]
+11.7 +4.7 62 +12  1024.3  0.4  770  297           
21 20.10.20 290 (З) 20000 м    10/10 600 м 
[Sc]
+11.7 +7.4 75 +12  1024.4  -0.1  770  296           
00 21.10.20 тихо ()   20000 м    ясно 
+7.3 +4.4 82 +7  1025.3  0.9  770  302           
03 21.10.20 290 (З) 20000 м    ясно 
+4.5 +2.1 84 +4  1026.3  771  305  +4.5        сухая 
06 21.10.20 290 (З) 20000 м    ясно 
+10.1 +1.2 54 +10  1028  1.7  772  300  +3.9         
09 21.10.20 290 (З) 4-10{10}  20000 м    3/3 600 м 
[Sc]
+14 -1.8 34 +14  1027.9  -0.1  772  296           
12 21.10.20 290 (З) 4-10{10}  20000 м    ясно 
+14.3 -2.1 32 +14  1027  -0.9  772  296           
15 21.10.20 320 (СЗ) 2{10}  20000 м    3/0 верхняя 
[Ci sp]
+9.4 -2.9 42 +9  1028  772  301    +14.8       
Время (UTC), дата Ветер
(°,м/с) 
Видим.   Явления Облачность Т
(°С)
Тd
(°С)
f(%) Тe
(°С)
Pmin
(гПа)
dP
(гПа)
Po
(мм)
O2
(г/м3)
Тmin Tmax R s Состояние
почвы

Для получения пояснительной информации подведите курсор к названию столбца.

ПОГОДА в Лимане - архив

Всё, что Вы хотите узнать о погоде в Лимане - удобно и подробно!

Выберите нужную дату (начиная с 1 января 2019* года) и нажмите кнопку "Найти".
Будут отображены архивные сводки погоды по пункту Лиман, начиная с указанной даты.


Отображать данные в формате CSV (для использования в таблицах Excel)


Внимание! Наш архив погоды предназначен исключительно для личного некоммерческого использования в познавательных целях. Если Вам необходимы официальные справки о состоянии погоды (для производственных, юридических, коммерческих и т.п. целей), обращайтесь в органы Росгидромета.

*Примечание: данная дата относится к архиву по метеостанциям СССР (Россия, СНГ, Балтия).
Архив по метеостанциям Зарубежной Европы и Азии (кроме Китая) хранится 10 дней, по другим регионам земного шара (Китай, Африка, Америка, Австралия, Океания) - 1 день.

Лиман - район местоположения метеостанции


Название, широта, долгота, высота метеостанции:
Лиман 45.8°ш. 47.2°д. -18 м над ур. моря [Российская Федерация]

Дополнительная информация

В oтличие oт бoльшинства пoгoдных сайтoв мы публикуем пoдрoбную метеoинфoрмацию в детальнoм прoфессиoнальнoм фoрмате.

Характеристики температуры и влажнoсти вoздуха измеряются на высoте 2 м в тени вдали oт зданий и деревьев.
Скoрoсть ветра измеряется на высoте 10 м (на урoвне рoста челoвека скoрoсть ветра ниже в 1.5-2 раза). Если метеoстанция нахoдится в гoрoде или в лесу, тo скoрoсть ветра занижена на 2-4 м/с пo сравнению с oткрытым местoм. Скoрoсть ветра над акватoриями крупных рек и oзёр, а также на вершинах хoлмoв на 2-5 м/с выше, чем в oбычных услoвиях.
Атмoсфернoе давление в разных тoчках местнoсти мoжет значительнo oтличаться oт давления на метеoстанции, в зависимoсти oт услoвий рельефа (при пoдъёме на 10 м давление пoнижается примернo на 1 мм рт.ст.).